Time,TemperatureF,DewpointF,PressureIn,WindDirection,WindDirectionDegrees,WindSpeedMPH,WindSpeedGustMPH,Humidity,HourlyPrecipIn,Conditions,Clouds,dailyrainin,SoftwareType,DateUTC
2013-01-06 00:12:00,44.6,45.0,30.02,ENE,61,8.0,8.0,100,0.02,,,0.36,weatherlink.com 1.10,2013-01-06 08:12:00,
2013-01-06 00:27:00,42.9,43.0,30.01,ENE,61,13.0,16.0,100,0.06,,,0.00,weatherlink.com 1.10,2013-01-06 08:27:00,
2013-01-06 00:42:00,42.4,42.0,30.01,NE,44,5.0,8.0,100,0.14,,,0.08,weatherlink.com 1.10,2013-01-06 08:42:00,
2013-01-06 00:57:00,41.9,42.0,30.02,NE,46,8.0,11.0,100,0.15,,,0.11,weatherlink.com 1.10,2013-01-06 08:57:00,
2013-01-06 01:12:00,41.5,42.0,30.02,NE,51,9.0,14.0,100,0.21,,,0.17,weatherlink.com 1.10,2013-01-06 09:12:00,
2013-01-06 01:27:00,41.4,41.0,30.02,ENE,70,13.0,18.0,100,0.18,,,0.18,weatherlink.com 1.10,2013-01-06 09:27:00,
2013-01-06 01:42:00,41.4,41.0,30.01,NNE,15,10.0,20.0,100,0.10,,,0.18,weatherlink.com 1.10,2013-01-06 09:42:00,
2013-01-06 01:57:00,41.4,41.0,30.02,NE,51,9.0,19.0,100,0.06,,,0.18,weatherlink.com 1.10,2013-01-06 09:57:00,
2013-01-06 02:12:00,41.2,41.0,30.02,ENE,63,11.0,18.0,100,0.01,,,0.18,weatherlink.com 1.10,2013-01-06 10:12:00,
2013-01-06 02:27:00,41.1,41.0,30.03,East,84,8.0,18.0,100,0.00,,,0.18,weatherlink.com 1.10,2013-01-06 10:27:00,
2013-01-06 02:42:00,41.2,41.0,30.04,ENE,73,14.0,16.0,100,0.00,,,0.18,weatherlink.com 1.10,2013-01-06 10:42:00,
2013-01-06 02:57:00,41.1,41.0,30.04,NE,48,14.0,20.0,100,0.00,,,0.18,weatherlink.com 1.10,2013-01-06 10:57:00,
2013-01-06 03:12:00,41.1,41.0,30.04,NE,41,14.0,19.0,100,0.00,,,0.18,weatherlink.com 1.10,2013-01-06 11:12:00,
2013-01-06 03:27:00,41.2,41.0,30.05,ENE,66,14.0,18.0,100,0.00,,,0.18,weatherlink.com 1.10,2013-01-06 11:27:00,
2013-01-06 03:42:00,41.2,41.0,30.05,ENE,68,11.0,21.0,100,0.00,,,0.18,weatherlink.com 1.10,2013-01-06 11:42:00,
2013-01-06 03:57:00,41.3,41.0,30.06,NNE,30,7.0,17.0,100,0.00,,,0.18,weatherlink.com 1.10,2013-01-06 11:57:00,
2013-01-06 04:12:00,41.5,42.0,30.07,NNW,339,6.0,14.0,100,0.00,,,0.18,weatherlink.com 1.10,2013-01-06 12:12:00,
2013-01-06 04:27:00,41.6,42.0,30.07,NNE,19,15.0,17.0,100,0.00,,,0.18,weatherlink.com 1.10,2013-01-06 12:27:00,
2013-01-06 04:42:00,41.6,42.0,30.07,NE,51,11.0,13.0,100,0.00,,,0.18,weatherlink.com 1.10,2013-01-06 12:42:00,
2013-01-06 04:57:00,41.7,42.0,30.07,NE,40,13.0,15.0,100,0.00,,,0.18,weatherlink.com 1.10,2013-01-06 12:57:00,
2013-01-06 05:12:00,41.5,42.0,30.07,NE,40,10.0,16.0,100,0.00,,,0.18,weatherlink.com 1.10,2013-01-06 13:12:00,
2013-01-06 05:27:00,41.6,42.0,30.07,NNE,19,15.0,17.0,100,0.00,,,0.18,weatherlink.com 1.10,2013-01-06 13:27:00,
2013-01-06 05:43:00,41.7,42.0,30.09,NNW,346,8.0,15.0,100,0.00,,,0.18,weatherlink.com 1.10,2013-01-06 13:43:00,
2013-01-06 05:58:00,41.9,42.0,30.09,North,350,5.0,12.0,100,0.00,,,0.18,weatherlink.com 1.10,2013-01-06 13:58:00,
2013-01-06 06:13:00,41.8,42.0,30.09,NNW,340,5.0,12.0,100,0.00,,,0.18,weatherlink.com 1.10,2013-01-06 14:13:00,
2013-01-06 06:28:00,41.7,42.0,30.09,NNE,15,9.0,12.0,100,0.00,,,0.18,weatherlink.com 1.10,2013-01-06 14:28:00,
2013-01-06 06:43:00,41.6,42.0,30.09,NNE,25,9.0,12.0,100,0.00,,,0.18,weatherlink.com 1.10,2013-01-06 14:43:00,
2013-01-06 06:58:00,41.5,42.0,30.09,NNE,18,7.0,11.0,100,0.00,,,0.18,weatherlink.com 1.10,2013-01-06 14:58:00,
2013-01-06 07:13:00,41.5,42.0,30.09,NNE,23,8.0,10.0,100,0.00,,,0.18,weatherlink.com 1.10,2013-01-06 15:13:00,
2013-01-06 07:28:00,41.5,42.0,30.10,NNE,26,8.0,13.0,100,0.00,,,0.18,weatherlink.com 1.10,2013-01-06 15:28:00,
2013-01-06 07:43:00,41.6,42.0,30.11,NNE,15,8.0,10.0,100,0.00,,,0.18,weatherlink.com 1.10,2013-01-06 15:43:00,
2013-01-06 07:58:00,41.6,42.0,30.11,NNE,18,6.0,9.0,100,0.00,,,0.18,weatherlink.com 1.10,2013-01-06 15:58:00,
2013-01-06 08:13:00,41.5,42.0,30.11,NNE,13,4.0,8.0,100,0.00,,,0.18,weatherlink.com 1.10,2013-01-06 16:13:00,
2013-01-06 08:28:00,41.5,42.0,30.12,NNE,12,4.0,9.0,100,0.00,,,0.18,weatherlink.com 1.10,2013-01-06 16:28:00,
2013-01-06 08:43:00,41.7,42.0,30.13,North,360,2.0,6.0,100,0.00,,,0.18,weatherlink.com 1.10,2013-01-06 16:43:00,
2013-01-06 08:58:00,41.9,42.0,30.14,NNE,30,4.0,9.0,100,0.00,,,0.18,weatherlink.com 1.10,2013-01-06 16:58:00,
2013-01-06 09:13:00,42.1,42.0,30.15,NNE,12,5.0,11.0,100,0.00,,,0.18,weatherlink.com 1.10,2013-01-06 17:13:00,
2013-01-06 09:28:00,42.6,43.0,30.15,NNE,27,6.0,8.0,100,0.00,,,0.18,weatherlink.com 1.10,2013-01-06 17:28:00,
2013-01-06 09:43:00,43.1,43.0,30.15,NNE,33,5.0,9.0,99,0.00,,,0.18,weatherlink.com 1.10,2013-01-06 17:43:00,
2013-01-06 09:58:00,43.4,43.0,30.15,NE,37,7.0,11.0,97,0.00,,,0.18,weatherlink.com 1.10,2013-01-06 17:58:00,
2013-01-06 10:13:00,43.7,43.0,30.16,North,358,4.0,11.0,96,0.00,,,0.18,weatherlink.com 1.10,2013-01-06 18:13:00,
2013-01-06 10:28:00,43.8,43.0,30.15,NNE,19,6.0,9.0,95,0.00,,,0.18,weatherlink.com 1.10,2013-01-06 18:28:00,
2013-01-06 10:43:00,44.2,43.0,30.15,NNW,348,2.0,5.0,94,0.00,,,0.18,weatherlink.com 1.10,2013-01-06 18:43:00,
2013-01-06 10:58:00,44.3,42.0,30.15,NE,38,6.0,6.0,93,0.00,,,0.18,weatherlink.com 1.10,2013-01-06 18:58:00,
2013-01-06 11:13:00,44.4,43.0,30.14,NE,54,3.0,5.0,93,0.00,,,0.18,weatherlink.com 1.10,2013-01-06 19:13:00,
2013-01-06 11:28:00,44.5,43.0,30.14,NE,50,6.0,7.0,93,0.00,,,0.18,weatherlink.com 1.10,2013-01-06 19:28:00,
2013-01-06 11:43:00,44.3,42.0,30.13,NE,46,6.0,9.0,92,0.00,,,0.18,weatherlink.com 1.10,2013-01-06 19:43:00,
2013-01-06 11:58:00,44.5,43.0,30.13,NE,41,6.0,9.0,93,0.00,,,0.18,weatherlink.com 1.10,2013-01-06 19:58:00,
2013-01-06 12:13:00,44.4,43.0,30.13,ENE,68,7.0,7.0,93,0.00,,,0.18,weatherlink.com 1.10,2013-01-06 20:13:00,
2013-01-06 12:28:00,44.9,43.0,30.12,NNE,23,9.0,9.0,92,0.00,,,0.18,weatherlink.com 1.10,2013-01-06 20:28:00,
2013-01-06 12:43:00,45.1,43.0,30.12,NNE,30,6.0,8.0,91,0.00,,,0.18,weatherlink.com 1.10,2013-01-06 20:43:00,
2013-01-06 12:58:00,44.8,42.0,30.12,ENE,61,5.0,6.0,91,0.00,,,0.18,weatherlink.com 1.10,2013-01-06 20:58:00,
2013-01-06 13:13:00,45.3,43.0,30.12,NNE,16,5.0,7.0,91,0.00,,,0.18,weatherlink.com 1.10,2013-01-06 21:13:00,
2013-01-06 13:28:00,45.1,42.0,30.11,NNE,25,5.0,8.0,89,0.00,,,0.18,weatherlink.com 1.10,2013-01-06 21:28:00,
2013-01-06 13:43:00,45.0,42.0,30.12,NE,34,5.0,8.0,88,0.00,,,0.18,weatherlink.com 1.10,2013-01-06 21:43:00,
2013-01-06 13:59:00,45.2,42.0,30.12,NE,53,5.0,8.0,87,0.00,,,0.18,weatherlink.com 1.10,2013-01-06 21:59:00,
2013-01-06 14:13:00,45.5,42.0,30.12,ENE,64,5.0,5.0,87,0.00,,,0.18,weatherlink.com 1.10,2013-01-06 22:13:00,
2013-01-06 14:29:00,46.5,43.0,30.12,NNE,15,4.0,6.0,88,0.00,,,0.18,weatherlink.com 1.10,2013-01-06 22:29:00,
2013-01-06 14:44:00,46.7,43.0,30.12,ESE,122,0.0,5.0,87,0.00,,,0.18,weatherlink.com 1.10,2013-01-06 22:44:00,
2013-01-06 14:59:00,46.6,43.0,30.12,North,1,0.0,2.0,87,0.00,,,0.18,weatherlink.com 1.10,2013-01-06 22:59:00,
2013-01-06 15:14:00,46.3,43.0,30.13,North,6,1.0,2.0,87,0.00,,,0.18,weatherlink.com 1.10,2013-01-06 23:14:00,
2013-01-06 15:29:00,46.4,43.0,30.13,North,6,1.0,1.0,89,0.00,,,0.18,weatherlink.com 1.10,2013-01-06 23:29:00,
2013-01-06 15:44:00,47.0,44.0,30.13,West,274,5.0,7.0,88,0.00,,,0.18,weatherlink.com 1.10,2013-01-06 23:44:00,
2013-01-06 15:59:00,46.5,44.0,30.13,SW,229,7.0,8.0,90,0.00,,,0.18,weatherlink.com 1.10,2013-01-06 23:59:00,
2013-01-06 16:14:00,46.1,44.0,30.13,West,260,5.0,9.0,92,0.00,,,0.18,weatherlink.com 1.10,2013-01-07 00:14:00,
2013-01-06 16:29:00,46.2,43.0,30.13,WSW,250,7.0,8.0,89,0.00,,,0.18,weatherlink.com 1.10,2013-01-07 00:29:00,
2013-01-06 16:44:00,46.1,43.0,30.13,WSW,250,6.0,7.0,90,0.00,,,0.18,weatherlink.com 1.10,2013-01-07 00:44:00,
2013-01-06 16:59:00,45.9,43.0,30.13,WSW,246,9.0,9.0,90,0.00,,,0.18,weatherlink.com 1.10,2013-01-07 00:59:00,
2013-01-06 17:14:00,45.6,43.0,30.13,West,260,7.0,7.0,90,0.00,,,0.18,weatherlink.com 1.10,2013-01-07 01:14:00,
2013-01-06 17:29:00,45.3,43.0,30.12,WSW,255,7.0,8.0,91,0.00,,,0.18,weatherlink.com 1.10,2013-01-07 01:29:00,
2013-01-06 17:44:00,45.7,43.0,30.12,WSW,253,7.0,7.0,91,0.00,,,0.18,weatherlink.com 1.10,2013-01-07 01:44:00,
2013-01-06 17:59:00,45.9,43.0,30.12,West,274,7.0,8.0,90,0.00,,,0.18,weatherlink.com 1.10,2013-01-07 01:59:00,
2013-01-06 18:14:00,46.3,43.0,30.13,West,262,7.0,8.0,87,0.00,,,0.18,weatherlink.com 1.10,2013-01-07 02:14:00,
2013-01-06 18:29:00,46.0,43.0,30.13,West,273,7.0,9.0,89,0.00,,,0.18,weatherlink.com 1.10,2013-01-07 02:29:00,
2013-01-06 18:44:00,45.9,43.0,30.13,WSW,252,10.0,13.0,90,0.00,,,0.18,weatherlink.com 1.10,2013-01-07 02:44:00,
2013-01-06 18:59:00,45.8,43.0,30.13,West,271,11.0,14.0,89,0.00,,,0.18,weatherlink.com 1.10,2013-01-07 02:59:00,
2013-01-06 19:14:00,46.3,43.0,30.13,WSW,256,12.0,14.0,87,0.00,,,0.18,weatherlink.com 1.10,2013-01-07 03:14:00,
2013-01-06 19:29:00,46.1,43.0,30.14,WSW,256,11.0,13.0,87,0.00,,,0.18,weatherlink.com 1.10,2013-01-07 03:29:00,
2013-01-06 19:44:00,46.5,43.0,30.14,West,269,9.0,13.0,86,0.00,,,0.18,weatherlink.com 1.10,2013-01-07 03:44:00,
2013-01-06 19:59:00,45.7,43.0,30.14,WSW,257,11.0,13.0,91,0.00,,,0.18,weatherlink.com 1.10,2013-01-07 03:59:00,
2013-01-06 20:14:00,45.9,43.0,30.14,West,259,7.0,10.0,89,0.00,,,0.18,weatherlink.com 1.10,2013-01-07 04:14:00,
2013-01-06 20:29:00,47.3,42.0,30.15,NW,304,2.0,7.0,82,0.00,,,0.18,weatherlink.com 1.10,2013-01-07 04:29:00,
2013-01-06 20:44:00,47.9,42.0,30.15,North,359,3.0,5.0,79,0.00,,,0.18,weatherlink.com 1.10,2013-01-07 04:44:00,
2013-01-06 20:59:00,47.3,42.0,30.15,NNE,27,2.0,5.0,81,0.00,,,0.18,weatherlink.com 1.10,2013-01-07 04:59:00,
2013-01-06 21:15:00,47.4,42.0,30.16,NE,43,0.0,7.0,81,0.00,,,0.18,weatherlink.com 1.10,2013-01-07 05:15:00,
2013-01-06 21:29:00,47.3,42.0,30.16,NNE,32,2.0,5.0,82,0.00,,,0.18,weatherlink.com 1.10,2013-01-07 05:29:00,
2013-01-06 21:44:00,46.9,42.0,30.15,North,5,2.0,3.0,83,0.00,,,0.18,weatherlink.com 1.10,2013-01-07 05:44:00,
2013-01-06 21:59:00,46.8,43.0,30.15,North,4,2.0,4.0,85,0.00,,,0.18,weatherlink.com 1.10,2013-01-07 05:59:00,
2013-01-06 22:14:00,46.5,43.0,30.15,West,269,0.0,3.0,86,0.00,,,0.18,weatherlink.com 1.10,2013-01-07 06:14:00,
2013-01-06 22:29:00,45.9,42.0,30.14,SW,229,2.0,2.0,87,0.00,,,0.18,weatherlink.com 1.10,2013-01-07 06:29:00,
2013-01-06 22:44:00,45.3,42.0,30.14,NNW,333,1.0,4.0,89,0.00,,,0.18,weatherlink.com 1.10,2013-01-07 06:44:00,
2013-01-06 22:59:00,45.2,42.0,30.16,ENE,58,4.0,7.0,89,0.00,,,0.18,weatherlink.com 1.10,2013-01-07 06:59:00,
2013-01-06 23:14:00,45.5,43.0,30.15,NNE,15,7.0,8.0,90,0.00,,,0.18,weatherlink.com 1.10,2013-01-07 07:14:00,
2013-01-06 23:29:00,45.0,43.0,30.15,NNE,20,6.0,7.0,91,0.00,,,0.18,weatherlink.com 1.10,2013-01-07 07:29:00,
2013-01-06 23:44:00,45.2,43.0,30.15,NE,34,8.0,9.0,91,0.00,,,0.18,weatherlink.com 1.10,2013-01-07 07:44:00,
2013-01-06 23:59:00,45.6,43.0,30.15,NNE,33,11.0,12.0,89,0.00,,,0.18,weatherlink.com 1.10,2013-01-07 07:59:00,